Change the Weather History Date:

Tuesday, October 8, 2013

  Actual Average Record
Temperature  
Mean Temperature 49 °F 48 °F  
Max Temperature 62 °F 64 °F 84 °F (1963)
Min Temperature 36 °F 34 °F 20 °F (1992)
Degree Days  
Heating Degree Days 16 16  
Month to date heating degree days 169 120  
Since 1 July heating degree days 315 377  
Cooling Degree Days 0 0  
Month to date cooling degree days 0 0  
Year to date cooling degree days 852 535  
Moisture  
Dew Point 39 °F    
Average Humidity 69    
Maximum Humidity 92    
Minimum Humidity 46    
Precipitation  
Precipitation 0.00 in 0.03 in 0.58 in (1993)
Month to date precipitation 1.40 0.25  
Year to date precipitation 7.24 6.55  
Sea Level Pressure  
Sea Level Pressure 29.75 in    
Wind  
Wind Speed 4 mph (NNW)    
Max Wind Speed 14 mph    
Max Gust Speed 16 mph    
Visibility 10 miles    
Events      
T = Trace of Precipitation, MM = Missing Value Source: NWS Daily Summary

Daily Weather History Graph

Daily Weather History Graph

Search for Another Location

Airport or City:

Trip Planner

Search our weather history database for the weather conditions in past years. The results will help you decide how hot, cold, wet, or windy it might be!

Date:

Astronomy

Oct. 08, 2013 Rise Set
Actual Time 7:18 AM MDT 6:39 PM MDT
Civil Twilight 6:49 AM MDT 7:08 PM MDT
Nautical Twilight 6:15 AM MDT 7:41 PM MDT
Astronomical Twilight 5:42 AM MDT 8:15 PM MDT
Moon 11:23 AM MDT (10/8) 9:11 PM MDT (10/8)
Length of Visible Light 12h 19m
Length of Day
11h 21m
Waxing Crescent, 16% of the Moon is Illuminated
Oct 8
Waxing Crescent
Oct 11
First Quarter
Oct 18
Full
Oct 26
Last Quarter
Nov 3
New

Hourly Weather History & Observations

Time (MDT) Temp. Windchill Dew Point Humidity Pressure Visibility Wind Dir Wind Speed Gust Speed Precip Events Conditions
12:53 AM 43.0 °F 41.3 °F 39.0 °F 86% 29.73 in 10.0 mi ESE 3.5 mph - N/A   Clear
1:53 AM 42.1 °F 39.2 °F 37.9 °F 85% 29.73 in 10.0 mi WNW 4.6 mph - N/A   Clear
2:53 AM 39.0 °F 36.8 °F 37.0 °F 93% 29.73 in 10.0 mi SE 3.5 mph - N/A   Clear
3:53 AM 39.9 °F 37.8 °F 37.0 °F 89% 29.72 in 10.0 mi SSE 3.5 mph - N/A   Clear
4:53 AM 37.0 °F - 35.1 °F 93% 29.73 in 10.0 mi Calm Calm - N/A   Clear
5:53 AM 39.0 °F 35.7 °F 36.0 °F 89% 29.73 in 10.0 mi SW 4.6 mph - N/A   Clear
6:53 AM 37.0 °F - 35.1 °F 93% 29.74 in 10.0 mi Calm Calm - N/A   Clear
7:53 AM 37.0 °F - 36.0 °F 96% 29.75 in 10.0 mi Calm Calm - N/A   Clear
8:53 AM 39.9 °F 36.7 °F 37.9 °F 93% 29.77 in 10.0 mi Variable 4.6 mph - N/A   Clear
9:53 AM 48.0 °F - 39.0 °F 71% 29.73 in 10.0 mi Calm Calm - N/A   Clear
10:53 AM 50.0 °F - 41.0 °F 71% 29.72 in 10.0 mi Calm Calm - N/A   Clear
11:53 AM 54.0 °F - 39.9 °F 59% 29.72 in 10.0 mi Variable 3.5 mph - N/A   Clear
12:53 PM 57.9 °F - 41.0 °F 53% 29.69 in 10.0 mi Variable 3.5 mph - N/A   Clear
1:53 PM 60.1 °F - 41.0 °F 49% 29.67 in 10.0 mi North 3.5 mph - N/A   Clear
2:53 PM 61.0 °F - 43.0 °F 52% 29.67 in 10.0 mi NNW 8.1 mph - N/A   Clear
3:53 PM 62.1 °F - 42.1 °F 48% 29.68 in 10.0 mi NNW 9.2 mph - N/A   Clear
4:53 PM 61.0 °F - 39.0 °F 44% 29.70 in 10.0 mi North 10.4 mph - N/A   Clear
5:53 PM 57.9 °F - 39.0 °F 49% 29.73 in 10.0 mi North 5.8 mph - N/A   Clear
6:53 PM 54.0 °F - 39.9 °F 59% 29.78 in 10.0 mi North 10.4 mph - N/A   Clear
7:53 PM 51.1 °F - 39.9 °F 66% 29.83 in 10.0 mi WNW 4.6 mph - N/A   Clear
8:53 PM 48.9 °F - 39.9 °F 71% 29.86 in 10.0 mi Calm Calm - N/A   Clear
9:53 PM 50.0 °F - 39.9 °F 68% 29.86 in 10.0 mi NNW 8.1 mph - N/A   Clear
10:53 PM 48.0 °F - 36.0 °F 63% 29.89 in 10.0 mi NNW 4.6 mph - N/A   Clear
11:53 PM 48.0 °F - 35.1 °F 61% 29.89 in 10.0 mi WSW 3.5 mph - N/A   Clear